Fayetteville, AR

6:38 AM CDT on July 22, 2017 (GMT -0500)
Drake

Weather History for KFYV - May, 2013

Change the Weather History Date:

Thursday, May 9, 2013

  Actual Average Record
Temperature  
Mean Temperature 67 °F 63 °F  
Max Temperature 76 °F 75 °F 87 °F (2011)
Min Temperature 58 °F 52 °F 32 °F (1980)
Cooling Degree Days 2 2  
Month to date cooling degree days 3 13  
Year to date cooling degree days 32 41  
Growing Degree Days 16 (Base 50)    
Moisture  
Dew Point 60 °F    
Average Humidity 80    
Maximum Humidity 100    
Minimum Humidity 60    
Precipitation  
Precipitation 0.77 in 0.18 in 0.97 in (2006)
Month to date precipitation 1.84 1.75  
Year to date precipitation 17.70 15.92  
Sea Level Pressure  
Sea Level Pressure 29.95 in    
Wind  
Wind Speed 7 mph (SSW)    
Max Wind Speed 41 mph    
Max Gust Speed 59 mph    
Visibility 9 miles    
Events Rain , Thunderstorm    
T = Trace of Precipitation, MM = Missing Value Source: NWS Daily Summary

Daily Weather History Graph

Daily Weather History Graph

Search for Another Location

Airport or City:

Trip Planner

Search our weather history database for the weather conditions in past years. The results will help you decide how hot, cold, wet, or windy it might be!

Date:

Astronomy

May. 09, 2013 Rise Set
Actual Time 6:15 AM CDT 8:10 PM CDT
Civil Twilight 5:47 AM CDT 8:39 PM CDT
Nautical Twilight 5:13 AM CDT 9:13 PM CDT
Astronomical Twilight 4:37 AM CDT 9:49 PM CDT
Moon 5:59 AM CDT (5/9) 8:06 PM CDT (5/9)
Length of Visible Light 14h 51m
Length of Day
13h 55m
Waning Crescent, 0% of the Moon is Illuminated
May 9
Waning Crescent
May 9
New
May 17
First Quarter
May 24
Full
May 31
Last Quarter

Hourly Weather History & Observations

Time (CDT) Temp. Dew Point Humidity Pressure Visibility Wind Dir Wind Speed Gust Speed Precip Events Conditions
12:53 AM 66.0 °F 57.9 °F 75% 29.94 in 10.0 mi Calm Calm - N/A   Clear
1:53 AM 66.9 °F 57.9 °F 73% 29.93 in 10.0 mi South 8.1 mph - N/A   Overcast
2:53 AM 66.0 °F 57.0 °F 73% 29.90 in 10.0 mi SW 5.8 mph - N/A   Mostly Cloudy
3:53 AM 64.0 °F 57.9 °F 80% 29.93 in 10.0 mi WSW 5.8 mph - N/A   Mostly Cloudy
4:53 AM 61.0 °F 60.1 °F 97% 29.91 in 10.0 mi Calm Calm - 0.00 in   Scattered Clouds
5:53 AM 64.0 °F 59.0 °F 84% 29.86 in 10.0 mi SSE 8.1 mph - 0.00 in   Mostly Cloudy
6:23 AM 66.2 °F 59.0 °F 78% 29.97 in 10.0 mi SSW 15.0 mph 24.2 mph N/A Thunderstorm Overcast
6:27 AM 62.6 °F 59.0 °F 88% 30.02 in 1.8 mi SW 25.3 mph 58.7 mph 0.14 in Rain , Thunderstorm Light Thunderstorms and Rain
6:40 AM 59.0 °F 57.2 °F 94% 30.02 in 3.0 mi SW 10.4 mph 24.2 mph 0.25 in Rain , Thunderstorm Heavy Rain
6:53 AM 59.0 °F 57.9 °F 96% 30.00 in 6.0 mi South 10.4 mph - 0.27 in Rain , Thunderstorm Light Thunderstorms and Rain
7:17 AM 57.2 °F 57.2 °F 100% 30.03 in 10.0 mi SW 9.2 mph - 0.03 in Rain Light Rain
7:53 AM 57.9 °F 57.9 °F 100% 30.00 in 10.0 mi SSW 8.1 mph - 0.04 in Rain Light Rain
8:53 AM 59.0 °F 57.9 °F 96% 29.99 in 9.0 mi South 15.0 mph - 0.07 in Rain Light Rain
9:53 AM 61.0 °F 57.0 °F 87% 29.94 in 10.0 mi SW 8.1 mph - 0.07 in   Mostly Cloudy
10:53 AM 68.0 °F 62.1 °F 81% 29.94 in 10.0 mi South 6.9 mph - N/A   Partly Cloudy
11:53 AM 73.4 °F 60.8 °F 65% 29.97 in 10.0 mi WSW 8.1 mph - N/A   Scattered Clouds
12:53 PM 75.0 °F 60.1 °F 60% 29.91 in 10.0 mi South 13.8 mph - N/A   Clear
1:53 PM 73.9 °F 61.0 °F 64% 29.93 in 10.0 mi South 15.0 mph 19.6 mph N/A   Mostly Cloudy
2:53 PM 73.4 °F 60.8 °F 65% 29.96 in 10.0 mi SSW 10.4 mph - N/A   Overcast
3:53 PM 73.0 °F 60.1 °F 64% 29.92 in 10.0 mi SSW 12.7 mph - N/A   Overcast
4:41 PM 69.8 °F 60.8 °F 73% 29.93 in 10.0 mi SSE 5.8 mph - 0.00 in Rain , Thunderstorm Light Rain
4:53 PM 69.1 °F 62.1 °F 78% 29.90 in 7.0 mi South 4.6 mph - 0.00 in Rain , Thunderstorm Light Thunderstorms and Rain
5:53 PM 64.9 °F 64.0 °F 97% 29.93 in 7.0 mi South 6.9 mph - 0.08 in Rain , Thunderstorm Light Thunderstorms and Rain
6:53 PM 63.0 °F 62.1 °F 97% 29.93 in 7.0 mi Variable 5.8 mph - 0.24 in Rain , Thunderstorm Light Thunderstorms and Rain
7:29 PM 60.8 °F 60.8 °F 100% 29.94 in 10.0 mi NW 3.5 mph - 0.00 in Rain Light Rain
7:53 PM 62.1 °F 61.0 °F 96% 29.93 in 10.0 mi NE 3.5 mph - 0.00 in   Overcast
8:53 PM 60.8 °F 60.8 °F 100% 29.96 in 7.0 mi ENE 4.6 mph - N/A   Overcast
9:53 PM 60.1 °F 60.1 °F 100% 29.95 in 10.0 mi Variable 3.5 mph - N/A   Overcast
10:19 PM 60.8 °F 60.8 °F 100% 29.98 in 10.0 mi Calm Calm - N/A   Mostly Cloudy
10:53 PM 60.1 °F 60.1 °F 100% 29.95 in 10.0 mi Calm Calm - N/A   Overcast
11:53 PM 59.0 °F 59.0 °F 100% 29.96 in 10.0 mi Calm Calm - N/A   Mostly Cloudy